When you browse on this site, cookies collect data to enhance your experience and personalize the content and advertising you see.
Visit our Privacy Policy to learn more. By continuing to use the site, you agree to this use of cookies and data.
  • In United Kingdom
  • List of Countries
  • For 7 days
  • Water Temperature
  • Weather Map
  • Weather Widgets
  • user-avatar
    Login

    Hourly Weather Schleswig

    Today, 7 December, Saturday

    Time Temperature Precipitation Wind Pressure Humidity
    00:00 +6°C° 0.2 mm 9 mps 744 mmHg 90%
    01:00 +6°C° 0 mm 8 mps 744 mmHg 90%
    02:00 +6°C° 0.2 mm 7 mps 744 mmHg 90%
    03:00 +6°C° 0.2 mm 7 mps 744 mmHg 90%
    04:00 +7°C° 0.2 mm 6 mps 744 mmHg 90%
    05:00 +8°C° 0.2 mm 7 mps 745 mmHg 89%
    06:00 +8°C° 0.2 mm 7 mps 745 mmHg 87%
    07:00 +8°C° 0 mm 6 mps 746 mmHg 87%
    08:00 +7°C° 0 mm 6 mps 747 mmHg 87%
    09:00 +7°C° 0 mm 5 mps 748 mmHg 87%
    10:00 +7°C° 0 mm 4 mps 748 mmHg 88%
    11:00 +7°C° 0 mm 5 mps 749 mmHg 84%
    12:00 +7°C° 0 mm 5 mps 749 mmHg 80%
    13:00 +8°C° 0 mm 6 mps 750 mmHg 77%
    14:00 +7°C° 0 mm 5 mps 750 mmHg 79%
    15:00 +7°C° 0 mm 5 mps 750 mmHg 82%
    16:00 +6°C° 0 mm 5 mps 751 mmHg 84%
    17:00 +6°C° 0 mm 5 mps 751 mmHg 85%
    18:00 +6°C° 0 mm 5 mps 751 mmHg 85%
    19:00 +6°C° 0 mm 4 mps 752 mmHg 86%
    20:00 +7°C° 0.2 mm 5 mps 752 mmHg 86%
    21:00 +7°C° 0.2 mm 6 mps 751 mmHg 87%
    22:00 +6°C° 0.2 mm 7 mps 751 mmHg 87%
    23:00 +6°C° 0 mm 7 mps 751 mmHg 87%

    Tomorrow, 8 December, Sunday

    Time Temperature Precipitation Wind Pressure Humidity
    00:00 +6°C° 0 mm 7 mps 750 mmHg 86%
    01:00 +6°C° 0 mm 7 mps 750 mmHg 86%
    02:00 +6°C° 0 mm 8 mps 749 mmHg 87%
    03:00 +5°C° 0 mm 8 mps 748 mmHg 88%
    04:00 +5°C° 0 mm 8 mps 747 mmHg 88%
    05:00 +6°C° 0 mm 9 mps 746 mmHg 88%
    06:00 +6°C° 0 mm 10 mps 745 mmHg 87%
    07:00 +6°C° 0 mm 10 mps 744 mmHg 86%
    08:00 +6°C° 0.8 mm 11 mps 743 mmHg 86%
    09:00 +6°C° 0.8 mm 11 mps 742 mmHg 87%
    10:00 +6°C° 0.8 mm 11 mps 741 mmHg 87%
    11:00 +7°C° 0.5 mm 10 mps 741 mmHg 85%
    12:00 +7°C° 0.5 mm 8 mps 741 mmHg 83%
    13:00 +8°C° 0.5 mm 7 mps 740 mmHg 81%
    14:00 +8°C° 0 mm 7 mps 740 mmHg 80%
    15:00 +6°C° 0 mm 7 mps 741 mmHg 79%
    16:00 +5°C° 0 mm 7 mps 741 mmHg 77%
    17:00 +5°C° 0.2 mm 8 mps 741 mmHg 77%
    18:00 +5°C° 0.2 mm 8 mps 741 mmHg 78%
    19:00 +5°C° 0.2 mm 8 mps 741 mmHg 78%
    20:00 +5°C° 0.3 mm 8 mps 740 mmHg 78%
    21:00 +5°C° 0.3 mm 8 mps 740 mmHg 79%
    22:00 +5°C° 0.3 mm 8 mps 739 mmHg 79%
    23:00 +4°C° 0.4 mm 8 mps 739 mmHg 79%

    Day after tomorrow, 9 December, Monday

    Time Temperature Precipitation Wind Pressure Humidity
    00:00 +4°C° 0.4 mm 8 mps 738 mmHg 80%
    01:00 +4°C° 0.4 mm 7 mps 738 mmHg 80%
    02:00 +4°C° 0.4 mm 7 mps 738 mmHg 79%
    03:00 +4°C° 0.4 mm 8 mps 737 mmHg 79%
    04:00 +4°C° 0.4 mm 8 mps 737 mmHg 79%
    05:00 +4°C° 0.2 mm 8 mps 737 mmHg 79%
    06:00 +4°C° 0.2 mm 8 mps 736 mmHg 80%
    07:00 +4°C° 0.2 mm 8 mps 736 mmHg 81%
    08:00 +3°C° 0.7 mm 9 mps 735 mmHg 82%
    09:00 +3°C° 0.7 mm 9 mps 735 mmHg 83%
    10:00 +3°C° 0.7 mm 9 mps 734 mmHg 84%
    11:00 +4°C° 0.5 mm 8 mps 734 mmHg 85%
    12:00 +4°C° 0.5 mm 7 mps 734 mmHg 87%
    13:00 +4°C° 0.5 mm 6 mps 734 mmHg 89%
    14:00 +5°C° 1.3 mm 5 mps 735 mmHg 90%
    15:00 +4°C° 1.3 mm 3 mps 735 mmHg 92%
    16:00 +5°C° 1.3 mm 2 mps 736 mmHg 94%
    17:00 +5°C° 0.1 mm 4 mps 738 mmHg 87%
    18:00 +4°C° 0.1 mm 7 mps 740 mmHg 80%
    19:00 +3°C° 0.1 mm 9 mps 742 mmHg 74%
    20:00 +3°C° 0 mm 9 mps 744 mmHg 71%
    21:00 +2°C° 0 mm 9 mps 745 mmHg 68%
    22:00 +1°C° 0 mm 9 mps 747 mmHg 65%
    23:00 +1°C° 0 mm 9 mps 749 mmHg 66%

    10 December, Tuesday

    Time Temperature Precipitation Wind Pressure Humidity
    00:00 +1°C° 0 mm 9 mps 750 mmHg 68%
    01:00 0°C° 0 mm 8 mps 752 mmHg 70%
    02:00 0°C° 0 mm 7 mps 753 mmHg 72%
    03:00 +1°C° 0 mm 6 mps 755 mmHg 74%
    04:00 +1°C° 0 mm 6 mps 756 mmHg 76%
    05:00 0°C° 0 mm 5 mps 757 mmHg 77%
    06:00 0°C° 0 mm 4 mps 758 mmHg 77%
    07:00 +1°C° 0 mm 3 mps 759 mmHg 78%
    08:00 +2°C° 0 mm 2 mps 760 mmHg 76%
    09:00 +2°C° 0 mm 2 mps 761 mmHg 75%
    10:00 +3°C° 0 mm 1 mps 761 mmHg 73%
    11:00 +3°C° 0 mm 2 mps 761 mmHg 73%
    12:00 +4°C° 0 mm 2 mps 761 mmHg 72%
    13:00 +4°C° 0 mm 3 mps 761 mmHg 72%
    14:00 +3°C° 0 mm 3 mps 761 mmHg 75%
    15:00 +3°C° 0 mm 4 mps 760 mmHg 78%
    16:00 +1°C° 0 mm 4 mps 760 mmHg 81%
    17:00 +1°C° 0 mm 5 mps 759 mmHg 81%
    18:00 +1°C° 0 mm 6 mps 759 mmHg 81%
    19:00 0°C° 0 mm 7 mps 758 mmHg 81%
    20:00 0°C° 0 mm 8 mps 757 mmHg 79%
    21:00 0°C° 0 mm 8 mps 757 mmHg 77%
    22:00 0°C° 0 mm 9 mps 756 mmHg 75%
    23:00 0°C° 0.1 mm 9 mps 755 mmHg 75%

    11 December, Wednesday

    Time Temperature Precipitation Wind Pressure Humidity
    00:00 0°C° 0.1 mm 10 mps 754 mmHg 75%
    01:00 0°C° 0.1 mm 10 mps 753 mmHg 76%
    02:00 0°C° 0.8 mm 10 mps 752 mmHg 80%
    03:00 0°C° 0.8 mm 10 mps 751 mmHg 84%
    04:00 +1°C° 0.8 mm 10 mps 750 mmHg 88%
    05:00 +1°C° 1.1 mm 9 mps 750 mmHg 89%
    06:00 +2°C° 1.1 mm 9 mps 750 mmHg 90%
    07:00 +2°C° 1.1 mm 8 mps 750 mmHg 91%
    08:00 +4°C° 0.3 mm 7 mps 751 mmHg 89%
    09:00 +4°C° 0.3 mm 6 mps 751 mmHg 86%
    10:00 +5°C° 0.3 mm 5 mps 752 mmHg 84%
    11:00 +5°C° 0 mm 5 mps 752 mmHg 82%
    12:00 +6°C° 0 mm 5 mps 752 mmHg 80%
    13:00 +6°C° 0 mm 5 mps 752 mmHg 78%
    14:00 +5°C° 0 mm 5 mps 752 mmHg 80%
    15:00 +4°C° 0 mm 4 mps 752 mmHg 82%
    16:00 +4°C° 0 mm 4 mps 752 mmHg 84%
    17:00 +3°C° 0 mm 4 mps 752 mmHg 86%
    18:00 +2°C° 0 mm 5 mps 752 mmHg 87%
    19:00 +2°C° 0 mm 5 mps 752 mmHg 89%
    20:00 +1°C° 0 mm 5 mps 752 mmHg 90%
    21:00 +1°C° 0 mm 5 mps 751 mmHg 91%
    22:00 +1°C° 0 mm 4 mps 751 mmHg 92%
    23:00 +1°C° 0 mm 4 mps 751 mmHg 93%

    12 December, Thursday

    Time Temperature Precipitation Wind Pressure Humidity
    00:00 0°C° 0 mm 5 mps 750 mmHg 93%
    01:00 0°C° 0 mm 5 mps 750 mmHg 94%
    02:00 0°C° 0 mm 5 mps 749 mmHg 93%
    03:00 +1°C° 0 mm 5 mps 749 mmHg 92%
    04:00 +1°C° 0 mm 5 mps 749 mmHg 91%
    05:00 +1°C° 0 mm 5 mps 749 mmHg 90%
    06:00 +1°C° 0 mm 6 mps 749 mmHg 90%
    07:00 +1°C° 0 mm 6 mps 749 mmHg 89%
    08:00 +2°C° 0.1 mm 6 mps 749 mmHg 88%
    09:00 +2°C° 0.1 mm 6 mps 749 mmHg 87%
    10:00 +2°C° 0.1 mm 6 mps 749 mmHg 86%
    11:00 +3°C° 0 mm 6 mps 748 mmHg 83%
    12:00 +3°C° 0 mm 7 mps 748 mmHg 81%
    13:00 +3°C° 0 mm 7 mps 748 mmHg 78%
    14:00 +3°C° 0 mm 7 mps 748 mmHg 78%
    15:00 +3°C° 0 mm 6 mps 748 mmHg 79%
    16:00 +2°C° 0 mm 6 mps 748 mmHg 80%
    17:00 +2°C° 0 mm 6 mps 747 mmHg 80%
    18:00 +2°C° 0 mm 7 mps 747 mmHg 80%
    19:00 +2°C° 0 mm 7 mps 746 mmHg 81%
    20:00 +2°C° 0 mm 7 mps 745 mmHg 82%
    21:00 +1°C° 0 mm 8 mps 745 mmHg 83%
    22:00 +1°C° 0 mm 8 mps 744 mmHg 85%
    23:00 +1°C° 0 mm 8 mps 743 mmHg 85%
    Show more